Powrót do katalogu

BEIDOU 3M13

AktywnyNawigacjaMEO
NORAD 43622·PAYLOAD·🇨🇳 China

Wystrzelony Sep 19, 2018 z Xichang Satellite Launch Center

Loading…

Następne Przeloty (najbliższe 24 godziny)

TLE

ŚwieżeSource: CelesTrak SupGP

Epoka: Sep 12, 2026, 00:00 UTC

1 43622C 18072A   26255.00000000  .00000000  00000+0  00000+0 0  2558
2 43622  56.7048  59.7992 0004047 324.5690  45.0572  1.86231198    17

Śledź BEIDOU 3M13 w czasie rzeczywistym z AllMySat

Download on the App Store